Location: Complexul Astronomic Baia Mare
(47.6577°N, 23.5639°E)
Time: 13:38:57
(UTC+03:00)

ISS - Pass Details

Date: 31 May 2017
Orbit: 401 x 408 km, 51.6° (Epoch: 28 June)

Event Time Altitude Azimuth Distance (km) Brightness Sun altitude
Rises 01:40:46 0° 293° (WNW) 2,338 0.3 -20.3°
Reaches altitude 10° 01:42:53 10° 288° (WNW) 1,473 -0.9 -20.3°
Enters shadow 01:44:17 22° 279° (W) 940 -2.0 -20.3°
